Location: ?
(35.4064°N, 139.3593°E)
Time: 18:00:00
(UTC+00:00)

Cosmos 1328 Rocket - Pass Details

Date: 18 April 2024
Orbit: 597 x 624 km, 82.5° (Epoch: 27 May)

Event Time Altitude Azimuth Distance (km) Brightness Sun altitude
Exits shadow 17:37:27 54° 70° (ENE) 756 4.2 -27.6°
Drops below altitude 10° 17:41:24 10° 16° (NNE) 2,001 6.8 -27.0°
Sets 17:43:40 0° 12° (NNE) 2,912 7.7 -26.6°
